Time,TemperatureF,DewpointF,PressureIn,WindDirection,WindDirectionDegrees,WindSpeedMPH,WindSpeedGustMPH,Humidity,HourlyPrecipIn,Conditions,Clouds,dailyrainin,SoftwareType,DateUTC
2013-04-12 00:08:00,29.5,28.0,29.78,East,96,22.0,34.0,92,0.00,,,0.00,weatherlink.com 1.10,2013-04-12 04:08:00,
2013-04-12 00:23:00,29.4,27.0,29.78,East,100,20.0,28.0,92,0.00,,,0.00,weatherlink.com 1.10,2013-04-12 04:23:00,
2013-04-12 00:38:00,29.4,27.0,29.77,ESE,116,17.0,32.0,91,0.00,,,0.00,weatherlink.com 1.10,2013-04-12 04:38:00,
2013-04-12 00:53:00,29.4,27.0,29.76,ESE,103,18.0,28.0,91,0.00,,,0.00,weatherlink.com 1.10,2013-04-12 04:53:00,
2013-04-12 01:08:00,29.5,28.0,29.75,East,100,23.0,34.0,92,0.00,,,0.00,weatherlink.com 1.10,2013-04-12 05:08:00,
2013-04-12 01:23:00,29.4,27.0,29.74,East,90,19.0,32.0,91,0.00,,,0.00,weatherlink.com 1.10,2013-04-12 05:23:00,
2013-04-12 01:38:00,29.5,27.0,29.74,ESE,103,23.0,35.0,91,0.00,,,0.00,weatherlink.com 1.10,2013-04-12 05:38:00,
2013-04-12 01:53:00,29.4,27.0,29.72,ESE,103,26.0,34.0,91,0.00,,,0.00,weatherlink.com 1.10,2013-04-12 05:53:00,
2013-04-12 02:08:00,29.3,27.0,29.71,ESE,113,22.0,37.0,92,0.00,,,0.00,weatherlink.com 1.10,2013-04-12 06:08:00,
2013-04-12 02:24:00,29.1,27.0,29.71,ESE,122,16.0,38.0,92,0.00,,,0.00,weatherlink.com 1.10,2013-04-12 06:24:00,
2013-04-12 02:39:00,28.9,27.0,29.71,ESE,105,24.0,31.0,92,0.00,,,0.00,weatherlink.com 1.10,2013-04-12 06:39:00,
2013-04-12 02:54:00,28.7,27.0,29.70,ESE,105,21.0,29.0,92,0.00,,,0.00,weatherlink.com 1.10,2013-04-12 06:54:00,
2013-04-12 03:09:00,28.6,27.0,29.71,ESE,117,15.0,33.0,92,0.00,,,0.00,weatherlink.com 1.10,2013-04-12 07:09:00,
2013-04-12 03:24:00,28.6,27.0,29.71,ESE,115,13.0,26.0,92,0.00,,,0.00,weatherlink.com 1.10,2013-04-12 07:24:00,
2013-04-12 03:39:00,28.5,27.0,29.69,East,98,22.0,25.0,92,0.00,,,0.00,weatherlink.com 1.10,2013-04-12 07:39:00,
2013-04-12 03:54:00,28.3,26.0,29.68,ESE,109,21.0,25.0,92,0.00,,,0.00,weatherlink.com 1.10,2013-04-12 07:54:00,
2013-04-12 04:09:00,28.2,27.0,29.67,ESE,112,19.0,26.0,93,0.00,,,0.00,weatherlink.com 1.10,2013-04-12 08:09:00,
2013-04-12 04:24:00,28.0,27.0,29.65,ESE,112,16.0,27.0,94,0.00,,,0.00,weatherlink.com 1.10,2013-04-12 08:24:00,
2013-04-12 04:39:00,28.0,27.0,29.65,ESE,118,18.0,27.0,94,0.00,,,0.00,weatherlink.com 1.10,2013-04-12 08:39:00,
2013-04-12 04:54:00,28.1,27.0,29.66,SE,125,14.0,26.0,94,0.00,,,0.00,weatherlink.com 1.10,2013-04-12 08:54:00,
2013-04-12 05:09:00,28.2,27.0,29.65,ESE,109,15.0,28.0,94,0.00,,,0.00,weatherlink.com 1.10,2013-04-12 09:09:00,
2013-04-12 05:24:00,28.3,27.0,29.64,East,96,17.0,28.0,94,0.00,,,0.00,weatherlink.com 1.10,2013-04-12 09:24:00,
2013-04-12 05:39:00,28.3,27.0,29.63,ESE,107,18.0,24.0,94,0.00,,,0.00,weatherlink.com 1.10,2013-04-12 09:39:00,
2013-04-12 05:54:00,28.4,27.0,29.61,SE,126,21.0,27.0,94,0.00,,,0.00,weatherlink.com 1.10,2013-04-12 09:54:00,
2013-04-12 06:09:00,28.7,27.0,29.63,ESE,119,9.0,28.0,94,0.00,,,0.00,weatherlink.com 1.10,2013-04-12 10:09:00,
2013-04-12 06:24:00,28.8,27.0,29.62,ESE,115,14.0,22.0,94,0.00,,,0.00,weatherlink.com 1.10,2013-04-12 10:24:00,
2013-04-12 06:39:00,28.9,27.0,29.62,East,88,10.0,22.0,94,0.00,,,0.00,weatherlink.com 1.10,2013-04-12 10:39:00,
2013-04-12 06:54:00,29.0,28.0,29.62,East,94,11.0,23.0,94,0.00,,,0.00,weatherlink.com 1.10,2013-04-12 10:54:00,
2013-04-12 07:09:00,29.1,28.0,29.62,ESE,115,13.0,24.0,94,0.00,,,0.00,weatherlink.com 1.10,2013-04-12 11:09:00,
2013-04-12 07:24:00,29.3,28.0,29.62,East,98,9.0,19.0,94,0.00,,,0.00,weatherlink.com 1.10,2013-04-12 11:24:00,
2013-04-12 07:39:00,29.5,28.0,29.62,ESE,105,11.0,17.0,94,0.00,,,0.00,weatherlink.com 1.10,2013-04-12 11:39:00,
2013-04-12 07:54:00,29.6,28.0,29.62,ESE,102,8.0,23.0,94,0.00,,,0.00,weatherlink.com 1.10,2013-04-12 11:54:00,
2013-04-12 08:09:00,29.7,28.0,29.61,ESE,117,14.0,23.0,94,0.00,,,0.00,weatherlink.com 1.10,2013-04-12 12:09:00,
2013-04-12 08:24:00,29.7,28.0,29.60,ESE,117,11.0,19.0,94,0.00,,,0.00,weatherlink.com 1.10,2013-04-12 12:24:00,
2013-04-12 08:39:00,29.5,28.0,29.59,ENE,68,10.0,22.0,95,0.00,,,0.00,weatherlink.com 1.10,2013-04-12 12:39:00,
2013-04-12 08:54:00,29.4,28.0,29.59,ESE,113,15.0,19.0,95,0.00,,,0.00,weatherlink.com 1.10,2013-04-12 12:54:00,
2013-04-12 09:09:00,29.5,28.0,29.59,East,101,11.0,25.0,95,0.00,,,0.00,weatherlink.com 1.10,2013-04-12 13:09:00,
2013-04-12 09:24:00,29.7,29.0,29.60,ESE,107,10.0,21.0,96,0.00,,,0.00,weatherlink.com 1.10,2013-04-12 13:24:00,
2013-04-12 09:39:00,29.9,29.0,29.60,ESE,105,14.0,23.0,96,0.00,,,0.00,weatherlink.com 1.10,2013-04-12 13:39:00,
2013-04-12 09:54:00,30.0,29.0,29.59,East,97,9.0,22.0,95,0.00,,,0.00,weatherlink.com 1.10,2013-04-12 13:54:00,
2013-04-12 10:09:00,30.3,29.0,29.59,ESE,107,8.0,19.0,95,0.00,,,0.00,weatherlink.com 1.10,2013-04-12 14:09:00,
2013-04-12 10:24:00,30.5,29.0,29.59,ESE,109,15.0,17.0,95,0.00,,,0.00,weatherlink.com 1.10,2013-04-12 14:24:00,
2013-04-12 10:39:00,30.5,29.0,29.59,East,92,7.0,18.0,95,0.00,,,0.00,weatherlink.com 1.10,2013-04-12 14:39:00,
2013-04-12 10:54:00,30.6,29.0,29.59,East,98,9.0,16.0,95,0.00,,,0.00,weatherlink.com 1.10,2013-04-12 14:54:00,
2013-04-12 11:09:00,30.7,30.0,29.59,East,83,8.0,16.0,96,0.00,,,0.00,weatherlink.com 1.10,2013-04-12 15:09:00,
2013-04-12 11:24:00,31.1,30.0,29.60,ENE,63,10.0,17.0,96,0.00,,,0.00,weatherlink.com 1.10,2013-04-12 15:24:00,
2013-04-12 11:39:00,31.4,30.0,29.60,ESE,103,12.0,14.0,96,0.00,,,0.00,weatherlink.com 1.10,2013-04-12 15:39:00,
2013-04-12 11:54:00,31.5,31.0,29.60,East,86,8.0,14.0,96,0.01,,,0.01,weatherlink.com 1.10,2013-04-12 15:54:00,
2013-04-12 12:09:00,31.7,31.0,29.59,ESE,116,12.0,17.0,96,0.01,,,0.01,weatherlink.com 1.10,2013-04-12 16:09:00,
2013-04-12 12:24:00,31.9,31.0,29.59,East,94,10.0,22.0,95,0.02,,,0.02,weatherlink.com 1.10,2013-04-12 16:24:00,
2013-04-12 12:39:00,31.9,31.0,29.58,ESE,107,15.0,19.0,96,0.03,,,0.03,weatherlink.com 1.10,2013-04-12 16:39:00,
2013-04-12 12:54:00,32.0,31.0,29.58,ESE,104,11.0,21.0,95,0.02,,,0.03,weatherlink.com 1.10,2013-04-12 16:54:00,
2013-04-12 13:09:00,32.2,31.0,29.59,East,87,11.0,23.0,95,0.02,,,0.03,weatherlink.com 1.10,2013-04-12 17:09:00,
2013-04-12 13:24:00,32.4,31.0,29.59,East,95,11.0,22.0,95,0.01,,,0.03,weatherlink.com 1.10,2013-04-12 17:24:00,
2013-04-12 13:39:00,32.5,31.0,29.58,East,88,17.0,19.0,95,0.00,,,0.03,weatherlink.com 1.10,2013-04-12 17:39:00,
2013-04-12 14:25:00,33.0,32.0,29.58,East,87,13.0,18.0,95,0.01,,,0.04,weatherlink.com 1.10,2013-04-12 18:25:00,
2013-04-12 15:40:00,33.2,32.0,29.59,East,96,10.0,18.0,95,0.01,,,0.05,weatherlink.com 1.10,2013-04-12 19:40:00,
2013-04-12 15:55:00,33.4,32.0,29.59,East,101,13.0,16.0,95,0.01,,,0.05,weatherlink.com 1.10,2013-04-12 19:55:00,
2013-04-12 16:10:00,33.3,32.0,29.59,East,93,10.0,17.0,96,0.01,,,0.05,weatherlink.com 1.10,2013-04-12 20:10:00,
2013-04-12 16:25:00,33.0,32.0,29.59,East,94,16.0,16.0,96,0.00,,,0.05,weatherlink.com 1.10,2013-04-12 20:25:00,
2013-04-12 16:40:00,33.1,32.0,29.59,East,100,11.0,19.0,96,0.00,,,0.05,weatherlink.com 1.10,2013-04-12 20:40:00,
2013-04-12 16:55:00,33.0,32.0,29.59,East,92,9.0,19.0,96,0.00,,,0.05,weatherlink.com 1.10,2013-04-12 20:55:00,
2013-04-12 17:10:00,32.9,32.0,29.59,ESE,106,14.0,18.0,95,0.00,,,0.05,weatherlink.com 1.10,2013-04-12 21:10:00,
2013-04-12 17:25:00,33.0,32.0,29.59,East,94,13.0,19.0,95,0.00,,,0.05,weatherlink.com 1.10,2013-04-12 21:25:00,
2013-04-12 17:40:00,33.0,32.0,29.60,ESE,119,12.0,16.0,95,0.00,,,0.05,weatherlink.com 1.10,2013-04-12 21:40:00,
2013-04-12 17:55:00,32.9,32.0,29.60,East,94,10.0,18.0,95,0.00,,,0.05,weatherlink.com 1.10,2013-04-12 21:55:00,
2013-04-12 18:10:00,32.9,32.0,29.60,ESE,105,14.0,17.0,95,0.00,,,0.05,weatherlink.com 1.10,2013-04-12 22:10:00,
2013-04-12 18:25:00,32.8,32.0,29.61,ESE,107,12.0,16.0,95,0.00,,,0.05,weatherlink.com 1.10,2013-04-12 22:25:00,
2013-04-12 18:40:00,32.5,31.0,29.62,ESE,105,13.0,17.0,95,0.00,,,0.05,weatherlink.com 1.10,2013-04-12 22:40:00,
2013-04-12 18:55:00,32.5,32.0,29.62,ESE,105,15.0,15.0,96,0.00,,,0.05,weatherlink.com 1.10,2013-04-12 22:55:00,
2013-04-12 19:10:00,32.4,31.0,29.62,ESE,105,11.0,14.0,95,0.00,,,0.05,weatherlink.com 1.10,2013-04-12 23:10:00,
2013-04-12 19:25:00,32.3,31.0,29.62,ESE,105,15.0,15.0,95,0.00,,,0.05,weatherlink.com 1.10,2013-04-12 23:25:00,
2013-04-12 19:40:00,32.1,31.0,29.63,ESE,105,13.0,16.0,96,0.00,,,0.05,weatherlink.com 1.10,2013-04-12 23:40:00,
2013-04-12 19:55:00,32.0,31.0,29.63,ESE,105,13.0,17.0,96,0.00,,,0.05,weatherlink.com 1.10,2013-04-12 23:55:00,
2013-04-12 20:10:00,31.9,31.0,29.63,ESE,105,10.0,16.0,96,0.00,,,0.05,weatherlink.com 1.10,2013-04-13 00:10:00,
2013-04-12 20:25:00,31.8,31.0,29.63,ESE,105,7.0,15.0,96,0.00,,,0.05,weatherlink.com 1.10,2013-04-13 00:25:00,
2013-04-12 20:40:00,31.6,31.0,29.63,ESE,105,10.0,18.0,96,0.00,,,0.05,weatherlink.com 1.10,2013-04-13 00:40:00,
2013-04-12 20:55:00,31.6,31.0,29.63,ESE,105,9.0,13.0,96,0.00,,,0.05,weatherlink.com 1.10,2013-04-13 00:55:00,
2013-04-12 21:10:00,31.5,31.0,29.63,ESE,105,12.0,13.0,96,0.00,,,0.05,weatherlink.com 1.10,2013-04-13 01:10:00,
2013-04-12 21:25:00,31.5,31.0,29.64,ESE,105,9.0,15.0,96,0.00,,,0.05,weatherlink.com 1.10,2013-04-13 01:25:00,
2013-04-12 21:40:00,31.5,31.0,29.64,ESE,105,11.0,12.0,96,0.00,,,0.05,weatherlink.com 1.10,2013-04-13 01:40:00,
2013-04-12 21:55:00,31.5,31.0,29.65,ESE,105,7.0,11.0,96,0.00,,,0.05,weatherlink.com 1.10,2013-04-13 01:55:00,
2013-04-12 22:10:00,31.5,31.0,29.65,ESE,105,5.0,12.0,96,0.00,,,0.05,weatherlink.com 1.10,2013-04-13 02:10:00,
2013-04-12 22:25:00,31.5,31.0,29.66,ESE,105,3.0,8.0,96,0.00,,,0.05,weatherlink.com 1.10,2013-04-13 02:25:00,
2013-04-12 22:40:00,31.5,31.0,29.66,ESE,105,3.0,5.0,96,0.00,,,0.05,weatherlink.com 1.10,2013-04-13 02:40:00,
2013-04-12 22:55:00,31.5,31.0,29.66,ESE,105,3.0,5.0,96,0.00,,,0.05,weatherlink.com 1.10,2013-04-13 02:55:00,
2013-04-12 23:10:00,31.4,31.0,29.66,ESE,105,3.0,7.0,97,0.00,,,0.05,weatherlink.com 1.10,2013-04-13 03:10:00,
2013-04-12 23:25:00,31.5,31.0,29.65,ESE,105,4.0,5.0,97,0.00,,,0.05,weatherlink.com 1.10,2013-04-13 03:25:00,
2013-04-12 23:40:00,31.4,31.0,29.66,ESE,105,7.0,7.0,97,0.00,,,0.05,weatherlink.com 1.10,2013-04-13 03:40:00,
2013-04-12 23:55:00,31.4,31.0,29.66,ESE,105,4.0,8.0,97,0.00,,,0.05,weatherlink.com 1.10,2013-04-13 03:55:00,